Fairbanks Eiels, AK

5:04 PM AKDT on October 22, 2017 (GMT -0800)
Eielson Air Force Base

Weather History for PAEI - December, 2013

Change the Weather History Date:

Saturday, December 14, 2013

  Actual Average Record
Temperature  
Mean Temperature -2 °F -  
Max Temperature 1 °F 1 °F 68 °F (2012)
Min Temperature -5 °F -15 °F -51 °F (1964)
Degree Days  
Heating Degree Days 67    
Moisture  
Dew Point -7 °F    
Average Humidity 79    
Maximum Humidity 85    
Minimum Humidity 76    
Precipitation  
Precipitation 0.01 in - - ()
Sea Level Pressure  
Sea Level Pressure 29.27 in    
Wind  
Wind Speed 5 mph (NNW)    
Max Wind Speed 12 mph    
Max Gust Speed -    
Visibility 5 miles    
Events Snow    
Averages and records for this station are not official NWS values.
T = Trace of Precipitation, MM = Missing Value Source: NWS Daily Summary

Daily Weather History Graph

Daily Weather History Graph

Search for Another Location

Airport or City:

Trip Planner

Search our weather history database for the weather conditions in past years. The results will help you decide how hot, cold, wet, or windy it might be!

Date:

Astronomy

Dec. 14, 2013 Rise Set
Actual Time 10:45 AM AKST 2:41 PM AKST
Civil Twilight 9:22 AM AKST 4:03 PM AKST
Nautical Twilight 8:12 AM AKST 5:14 PM AKST
Astronomical Twilight 7:11 AM AKST 6:15 PM AKST
Moon 2:03 PM AKST (12/14) 7:18 AM AKST (12/14)
Length of Visible Light 6h 40m
Length of Day
3h 55m
Waxing Gibbous, 94% of the Moon is Illuminated
Dec 14
Waxing Gibbous
Dec 17
Full
Dec 25
Last Quarter
Jan 1
New
Jan 7
First Quarter

Hourly Weather History & Observations

Time (AKST) Temp. Windchill Dew Point Humidity Pressure Visibility Wind Dir Wind Speed Gust Speed Precip Events Conditions
12:13 AM -4.0 °F - -9.4 °F 78% 29.26 in 2.0 mi Calm Calm - N/A Snow Light Snow
12:30 AM -2.2 °F - -7.6 °F 78% 29.26 in 2.5 mi North 2.3 mph - N/A Snow Light Snow
12:45 AM -0.4 °F -14.7 °F -5.8 °F 78% 29.24 in 3.0 mi NNE 8.1 mph - N/A Snow Light Snow
12:58 AM 0.1 °F -14.0 °F -5.1 °F 79% 29.29 in 2.5 mi NNE 8.1 mph - 0.00 in Snow Light Snow
1:13 AM -0.4 °F -13.4 °F -5.8 °F 78% 29.23 in 3.0 mi NNE 6.9 mph - N/A Snow Light Snow
1:22 AM -0.4 °F -14.7 °F -5.8 °F 78% 29.23 in 2.5 mi NNE 8.1 mph - N/A Snow Light Snow
1:37 AM -0.4 °F -15.7 °F -5.8 °F 78% 29.22 in 3.0 mi NNE 9.2 mph - N/A Snow Light Snow
1:52 AM -0.4 °F -17.6 °F -5.8 °F 78% 29.21 in 3.0 mi NNE 11.5 mph - N/A Snow Light Snow
1:58 AM 0.1 °F -16.9 °F -5.4 °F 77% 29.26 in 3.0 mi NNE 11.5 mph - 0.00 in Snow Light Snow
2:13 AM -0.4 °F -15.7 °F -5.8 °F 78% 29.21 in 2.5 mi NNE 9.2 mph - N/A Snow Light Snow
2:43 AM -0.4 °F -17.6 °F -5.8 °F 78% 29.20 in 1.8 mi North 11.5 mph - N/A Snow Light Snow
2:58 AM 0.3 °F -15.8 °F -4.7 °F 79% 29.26 in 2.5 mi North 10.4 mph - 0.00 in Snow Light Snow
3:13 AM -0.4 °F -17.6 °F -4.0 °F 85% 29.18 in 2.5 mi NNE 11.5 mph - N/A Snow Light Snow
3:43 AM 1.4 °F -14.5 °F -4.0 °F 78% 29.17 in 2.0 mi North 10.4 mph - N/A Snow Light Snow
3:58 AM 1.0 °F -12.9 °F -4.0 °F 79% 29.23 in 2.0 mi North 8.1 mph - 0.00 in Snow Light Snow
4:10 AM 1.4 °F -13.5 °F -4.0 °F 78% 29.16 in 2.0 mi North 9.2 mph - N/A Snow Light Snow
4:40 AM 1.4 °F -11.3 °F -2.2 °F 85% 29.16 in 2.5 mi North 6.9 mph - N/A Snow Light Snow
4:45 AM 1.4 °F -11.3 °F -2.2 °F 85% 29.16 in 2.0 mi North 6.9 mph - N/A Snow Light Snow
4:58 AM 1.9 °F -11.8 °F -2.9 °F 80% 29.22 in 2.5 mi North 8.1 mph - 0.00 in Snow Light Snow
5:28 AM 1.4 °F -12.5 °F -4.0 °F 78% 29.16 in 2.5 mi NNW 8.1 mph - N/A Snow Light Snow
5:43 AM 1.4 °F -9.9 °F -4.0 °F 78% 29.16 in 4.0 mi Variable 5.8 mph - N/A Snow Light Snow
5:58 AM 1.2 °F - -3.5 °F 81% 29.21 in 5.0 mi NW 2.3 mph - 0.01 in Snow Light Snow
6:13 AM 1.4 °F - -4.0 °F 78% 29.16 in 4.0 mi NW 1.2 mph - N/A Snow Light Snow
6:28 AM 1.4 °F - -4.0 °F 78% 29.16 in 6.0 mi West 2.3 mph - N/A Snow Light Snow
6:58 AM 1.0 °F -8.7 °F -3.5 °F 81% 29.22 in 5.0 mi WSW 4.6 mph - 0.00 in Snow Light Snow
7:28 AM -0.4 °F -14.7 °F -4.0 °F 85% 29.18 in 2.0 mi WSW 8.1 mph - N/A Snow Light Snow
7:55 AM -2.2 °F -16.8 °F -7.6 °F 78% 29.18 in 2.0 mi SW 8.1 mph - N/A Snow Light Snow
8:55 AM -4.0 °F -14.6 °F -9.4 °F 78% 29.26 in 3.0 mi Variable 4.6 mph - 0.00 in Snow Light Snow
9:55 AM -4.0 °F - -9.4 °F 78% 29.27 in 6.0 mi Calm Calm - 0.00 in Snow Light Snow
10:55 AM -4.0 °F - -9.4 °F 78% 29.28 in 5.0 mi Calm Calm - 0.00 in Snow Light Snow
11:55 AM -4.0 °F - -9.4 °F 78% 29.29 in 8.0 mi Calm Calm - 0.00 in Snow Light Snow
12:55 PM -5.8 °F -14.5 °F -9.4 °F 84% 29.30 in 8.0 mi SSE 3.5 mph - 0.00 in Snow Light Snow
1:55 PM -4.0 °F - -9.4 °F 78% 29.31 in 7.0 mi Calm Calm - 0.00 in Snow Light Snow
2:58 PM -4.7 °F - -10.1 °F 78% 29.31 in 9.0 mi Calm Calm - N/A   Overcast
3:58 PM -5.4 °F - -10.7 °F 78% 29.33 in 10.0 mi Variable 1.2 mph - N/A   Overcast
4:58 PM -4.7 °F - -9.9 °F 78% 29.32 in 10.0 mi Variable 2.3 mph - N/A   Overcast
5:13 PM -4.0 °F - -9.4 °F 78% 29.27 in 10.0 mi Calm Calm - N/A   Overcast
5:43 PM -4.0 °F - -9.4 °F 78% 29.28 in 6.0 mi Calm Calm - N/A Snow Light Snow
5:58 PM -4.7 °F - -10.1 °F 78% 29.34 in 9.0 mi Variable 1.2 mph - 0.00 in   Overcast
6:58 PM -4.5 °F - -9.9 °F 78% 29.34 in 10.0 mi Calm Calm - 0.00 in   Overcast
7:13 PM -4.0 °F - -9.4 °F 78% 29.29 in 10.0 mi Variable 1.2 mph - N/A   Overcast
7:28 PM -4.0 °F - -9.4 °F 78% 29.30 in 6.0 mi WNW 1.2 mph - N/A Snow Light Snow
7:43 PM -4.0 °F - -9.4 °F 78% 29.30 in 6.0 mi West 2.3 mph - N/A Snow Light Snow
7:58 PM -4.4 °F - -10.1 °F 76% 29.36 in 10.0 mi Calm Calm - N/A   Overcast
8:58 PM -4.4 °F - -9.9 °F 77% 29.37 in 10.0 mi Variable 1.2 mph - N/A   Overcast
9:58 PM -4.2 °F - -9.8 °F 77% 29.39 in 10.0 mi WNW 1.2 mph - N/A   Overcast
10:13 PM -4.0 °F - -9.4 °F 78% 29.33 in 4.0 mi Calm Calm - N/A Snow Light Snow
10:28 PM -4.0 °F - -9.4 °F 78% 29.34 in 4.0 mi Calm Calm - N/A Snow Light Snow
10:43 PM -4.0 °F - -9.4 °F 78% 29.34 in 3.0 mi Calm Calm - N/A Snow Light Snow
10:58 PM -4.2 °F - -9.6 °F 78% 29.41 in 3.0 mi Calm Calm - 0.00 in Snow Light Snow
11:13 PM -4.0 °F - -9.4 °F 78% 29.36 in 4.0 mi Variable 2.3 mph - N/A Snow Light Snow
11:28 PM -4.0 °F - -9.4 °F 78% 29.36 in 4.0 mi Calm Calm - N/A Snow Light Snow
11:43 PM -4.0 °F - -9.4 °F 78% 29.37 in 3.0 mi WNW 1.2 mph - N/A Snow Light Snow
11:58 PM -4.0 °F - -9.4 °F 78% 29.43 in 3.0 mi Variable 1.2 mph - 0.00 in Snow Light Snow